Home   Weather   Saint John's   Past weeks

Flag for Antigua and Barbuda Past Weather in Saint John's, Antigua and Barbuda — Yesterday and Last 2 Weeks

82 °F

Passing clouds.

Feels Like: 89 °F
Forecast: 80 / 86 °F
Wind: 12 mph from East

Location: Vc Bird International Antigua Airport

Current Time: Oct 24, 2016 at 11:22:03 PM

Latest Report: Oct 24, 2016 at 11:00 PM

Visibility: N/A

Pressure: 29.89 "Hg

Humidity: 79%

Dew Point: 75 °F

Location of Saint John'sLocation

Past Weather in Saint John's — Graph


Saint John's Temperature Yesterday

Maximum temperature yesterday: 88 °F (at 10:00 AM)
Minimum temperature yesterday: 79 °F (at 4:00 AM)
Average temperature yesterday: 83 °F

High & Low Weather Summary for the Past Weeks

High90 °F (Oct 17, 1:00 PM)94% (Oct 10, 6:00 AM)30.01 "Hg (Oct 10, 6:00 AM)
Low75 °F (Oct 15, 4:00 AM)38% (Oct 19, 1:00 PM)29.80 "Hg (Oct 17, 3:00 AM)
Average82 °F77%29.90 "Hg
* Reported Oct 9 10:00 PM — Oct 24 10:00 PM, Saint John's, Weather by CustomWeather, © 2016

Note: Actual official high and low records may vary slightly from our data, if they occured in-between our weather recording intervals... More about our weather records


Saint John's Weather History for the Previous 24 Hours

Scroll right to see more
Time TempWeatherWind HumidityBarometerVisibility
10:00 PM
Mon, Oct 24
81 °FPassing clouds.10 mph79%29.92 "HgN/A
9:00 PM79 °FPassing clouds.6 mph89%29.89 "HgN/A
8:00 PM75 °FPassing clouds.3 mph89%29.89 "HgN/A
7:00 PM77 °FSprinkles. Passing clouds.15 mph83%29.89 "HgN/A
5:00 PM84 °FScattered showers. Passing clouds.8 mph70%29.86 "HgN/A
4:00 PM86 °FPassing clouds.9 mph66%29.86 "HgN/A
3:00 PM86 °FScattered clouds.9 mph70%29.86 "HgN/A
2:00 PM86 °FScattered clouds.10 mph70%29.86 "HgN/A
1:00 PM88 °FScattered clouds.10 mph66%29.89 "HgN/A
12:00 PM88 °FPartly sunny.10 mph62%29.92 "HgN/A
11:00 AM86 °FPassing clouds.10 mph66%29.95 "HgN/A
10:00 AM88 °FPartly sunny.8 mph66%29.95 "HgN/A
9:00 AM86 °FScattered clouds.9 mph66%29.95 "HgN/A
8:00 AM84 °FScattered showers. Scattered clouds.7 mph70%29.95 "HgN/A
7:00 AM81 °FScattered showers. Passing clouds.7 mph79%29.92 "HgN/A
6:00 AM81 °FPassing clouds.7 mph74%29.92 "HgN/A
5:00 AM81 °FPassing clouds.8 mph79%29.89 "HgN/A
4:00 AM81 °FPassing clouds.8 mph79%29.86 "HgN/A
3:00 AM81 °FPassing clouds.7 mph74%29.86 "HgN/A
2:00 AM81 °FPassing clouds.8 mph79%29.89 "HgN/A
1:00 AM82 °FPassing clouds.8 mph79%29.92 "HgN/A
12:00 AM82 °FPassing clouds.9 mph74%29.95 "HgN/A
11:00 PM
Sun, Oct 23
79 °FSprinkles. Passing clouds.10 mph79%29.95 "HgN/A
Weather by CustomWeather, © 2016

See weather overviewHow to use our weather pages